Regional Weather Roundup
Issued by NWS Cleveland, OH

Home | Current Version | Previous Version | Graphics & Text | Print | Product List | Glossary On
Versions: 1 2 3 4 5 6 7 8 9 10 11 12 13 14 15 16 17 18 19 20 21 22 23 24 25 26 27 28 29 30 31 32 33 34 35 36 37 38 39 40 41 42 43 44 45 46 47 48 49 50
000
ASUS41 KCLE 161510
RWRCLE
OHIO REGIONAL WEATHER ROUNDUP
NATIONAL WEATHER SERVICE CLEVELAND, OH
1000 AM EST TUE JAN 16 2018

NOTE: "FAIR" INDICATES FEW OR NO CLOUDS BELOW 12,000 FEET WITH NO
SIGNIFICANT WEATHER AND/OR OBSTRUCTIONS TO VISIBILITY.

OHZ001>008-015>018-024>027-034-035-043-044-161600-
   NORTHWEST OHIO

CITY           SKY/WX    TMP DP  RH WIND       PRES   REMARKS
DEFIANCE       NOT AVBL
FINDLAY        NOT AVBL
TOLEDO EXPRESS NOT AVBL
TOLEDO EXEC    LGT SNOW   7   1  78 SW14      30.46R WCI -10
LIMA           NOT AVBL
$$

OHZ009>014-019>023-028>033-038-089-161600-
   NORTHEAST OHIO

CITY           SKY/WX    TMP DP  RH WIND       PRES   REMARKS
CLE-HOPKINS    NOT AVBL
CLE-LAKEFRONT  NOT AVBL
CUY CO. ARPT   CLOUDY    10   3  72 W14       30.42R WCI  -5
LORAIN-ELYRIA  NOT AVBL
ASHTABULA      NOT AVBL
AKRON-CANTON   NOT AVBL
WOOSTER        NOT AVBL
MANSFIELD      FAIR       3   0  85 SW10      30.40R WCI -12
YOUNGSTOWN     NOT AVBL
$$

OHZ042-051>053-060>062-070>072-077>081-161600-
  SOUTHWEST OHIO

CITY           SKY/WX    TMP DP  RH WIND       PRES   REMARKS
CINC-COVINGTON CLOUDY     7   1  78 W13       30.51R WCI  -9
CINC-LUNKEN    NOT AVBL
HAMILTON       NOT AVBL
DAYTON         NOT AVBL
WRIGHT-PAT AFB NOT AVBL
DAYTON GENERAL NOT AVBL
WILMINGTON     NOT AVBL
$$

OHZ036-037-039>041-045>050-054>059-063>069-073>076-082>088-161600-
  CENTRAL AND SOUTHEAST OHIO

CITY           SKY/WX    TMP DP  RH WIND       PRES   REMARKS
COLUMBUS       NOT AVBL
OSU AIRPORT    NOT AVBL
BOLTON FIELD   CLOUDY     5   0  78 W7        30.48R WCI  -7
RICKENBACK AFB NOT AVBL
NEWARK         NOT AVBL
MARION         NOT AVBL
LANCASTER      NOT AVBL
ZANESVILLE     NOT AVBL
NEW PHILLY     NOT AVBL
$$




USA.gov is the U.S. government's official web portal to all federal, state and local government web resources and services.